London-Corbin, KY

11:02 AM EDT on October 23, 2019 (GMT -0400)
London-Corbin / McKee

Weather History for KLOZ - May, 2019

Change the Weather History Date:

Monday, May 20, 2019

  Actual Average Record
Temperature  
Mean Temperature 70 °F 66 °F  
Max Temperature 80 °F 77 °F 90 °F (1977)
Min Temperature 59 °F 54 °F 37 °F (2002)
Degree Days  
Heating Degree Days 0 3  
Month to date heating degree days 44 76  
Since 1 July heating degree days 4024 4177  
Cooling Degree Days 5 3  
Month to date cooling degree days 62 42  
Year to date cooling degree days 74 68  
Growing Degree Days 22 (Base 50)    
Moisture  
Dew Point 60 °F    
Average Humidity 73    
Maximum Humidity 100    
Minimum Humidity 45    
Precipitation  
Precipitation 0.00 in 0.16 in 1.72 in (1991)
Sea Level Pressure  
Sea Level Pressure 29.99 in    
Wind  
Wind Speed 5 mph (WSW)    
Max Wind Speed 15 mph    
Max Gust Speed 21 mph    
Visibility 10 miles    
Events      
T = Trace of Precipitation, MM = Missing Value Source: NWS Daily Summary

Daily Weather History Graph

Daily Weather History Graph

Search for Another Location

Airport or City:

Astronomy

May. 20, 2019 Rise Set
Actual Time 6:24 AM EDT 8:41 PM EDT
Civil Twilight 5:55 AM EDT 9:11 PM EDT
Nautical Twilight 5:18 AM EDT 9:47 PM EDT
Astronomical Twilight 4:39 AM EDT 10:27 PM EDT
Moon 10:40 PM EDT (5/20) 7:52 AM EDT (5/20)
Length of Visible Light 15h 16m
Length of Day
14h 17m
Waning Gibbous, 96% of the Moon is Illuminated
May 20
Waning Gibbous
May 26
Last Quarter
Jun 3
New
Jun 10
First Quarter
Jun 17
Full

Hourly Weather History & Observations

Time (EDT) Temp. Heat Index Dew Point Humidity Pressure Visibility Wind Dir Wind Speed Gust Speed Precip Events Conditions
12:53 AM 66.9 °F - 66.0 °F 97% 29.94 in 10.0 mi Calm Calm - N/A   Overcast
1:53 AM 69.1 °F - 64.0 °F 84% 29.93 in 10.0 mi Calm Calm - N/A   Overcast
2:53 AM 69.1 °F - 62.1 °F 78% 29.93 in 10.0 mi SW 3.5 mph - N/A   Overcast
3:53 AM 68.0 °F - 61.0 °F 78% 29.93 in 10.0 mi SSW 5.8 mph - N/A   Overcast
4:53 AM 68.0 °F - 60.1 °F 76% 29.94 in 10.0 mi SW 5.8 mph - N/A   Partly Cloudy
5:06 AM 66.9 °F - 61.0 °F 81% 29.98 in 10.0 mi SW 3.5 mph - N/A   Mostly Cloudy
5:53 AM 68.0 °F - 62.1 °F 81% 29.96 in 10.0 mi WSW 5.8 mph - N/A   Overcast
6:50 AM 66.2 °F - 62.6 °F 88% 30.01 in 10.0 mi Calm Calm - N/A   Overcast
6:53 AM 66.9 °F - 62.1 °F 84% 29.98 in 10.0 mi Calm Calm - N/A   Overcast
7:13 AM 66.9 °F - 62.1 °F 84% 30.02 in 10.0 mi Calm Calm - N/A   Overcast
7:27 AM 66.9 °F - 63.0 °F 87% 30.03 in 10.0 mi Calm Calm - N/A   Overcast
7:53 AM 66.9 °F - 64.0 °F 90% 30.00 in 10.0 mi Calm Calm - N/A   Mostly Cloudy
8:53 AM 68.0 °F - 63.0 °F 84% 30.02 in 10.0 mi WSW 5.8 mph - N/A   Scattered Clouds
9:53 AM 72.0 °F - 60.1 °F 66% 30.03 in 10.0 mi Variable 3.5 mph - N/A   Partly Cloudy
10:53 AM 73.0 °F - 61.0 °F 66% 30.03 in 10.0 mi WNW 6.9 mph - N/A   Scattered Clouds
11:53 AM 75.0 °F - 60.1 °F 60% 30.03 in 10.0 mi West 8.1 mph 16.1 mph N/A   Scattered Clouds
12:53 PM 75.9 °F - 59.0 °F 56% 30.02 in 10.0 mi West 12.7 mph 18.4 mph N/A   Partly Cloudy
1:53 PM 78.1 °F - 57.0 °F 48% 30.01 in 10.0 mi WSW 9.2 mph - N/A   Clear
2:53 PM 80.1 °F 80.4 °F 57.0 °F 45% 29.99 in 10.0 mi West 11.5 mph 20.7 mph N/A   Clear
3:53 PM 79.0 °F - 55.9 °F 45% 29.98 in 10.0 mi West 10.4 mph - N/A   Clear
4:53 PM 80.1 °F 80.4 °F 57.0 °F 45% 29.98 in 10.0 mi West 11.5 mph 20.7 mph N/A   Clear
5:53 PM 79.0 °F - 57.0 °F 47% 29.98 in 10.0 mi WNW 9.2 mph 19.6 mph N/A   Clear
6:53 PM 78.1 °F - 55.0 °F 45% 29.99 in 10.0 mi WNW 13.8 mph - N/A   Clear
7:53 PM 75.0 °F - 55.9 °F 51% 29.99 in 10.0 mi WNW 5.8 mph - N/A   Clear
8:53 PM 72.0 °F - 55.0 °F 55% 29.99 in 10.0 mi Calm Calm - N/A   Clear
9:53 PM 69.1 °F - 55.9 °F 63% 29.99 in 10.0 mi Calm Calm - N/A   Clear
10:53 PM 64.0 °F - 57.0 °F 78% 30.00 in 10.0 mi Calm Calm - N/A   Clear
11:53 PM 62.1 °F - 57.0 °F 84% 30.01 in 10.0 mi Calm Calm - N/A   Clear